Time,TemperatureF,DewpointF,PressureIn,WindDirection,WindDirectionDegrees,WindSpeedMPH,WindSpeedGustMPH,Humidity,HourlyPrecipIn,Conditions,Clouds,dailyrainin,SoftwareType,DateUTC
2013-04-18 00:06:00,46.3,43.0,30.57,NW,320,0.0,0.0,89,0.00,,,0.00,weatherlink.com 1.10,2013-04-18 07:06:00,
2013-04-18 00:21:00,46.7,44.0,30.57,North,11,2.0,6.0,89,0.00,,,0.00,weatherlink.com 1.10,2013-04-18 07:21:00,
2013-04-18 00:36:00,46.9,43.0,30.57,North,11,1.0,7.0,87,0.00,,,0.00,weatherlink.com 1.10,2013-04-18 07:36:00,
2013-04-18 00:51:00,46.9,43.0,30.57,WNW,300,4.0,4.0,85,0.00,,,0.00,weatherlink.com 1.10,2013-04-18 07:51:00,
2013-04-18 01:06:00,46.8,43.0,30.57,North,360,0.0,3.0,85,0.00,,,0.00,weatherlink.com 1.10,2013-04-18 08:06:00,
2013-04-18 01:21:00,46.8,42.0,30.57,NW,325,0.0,2.0,84,0.00,,,0.00,weatherlink.com 1.10,2013-04-18 08:21:00,
2013-04-18 01:36:00,46.8,42.0,30.57,NW,316,0.0,3.0,84,0.00,,,0.00,weatherlink.com 1.10,2013-04-18 08:36:00,
2013-04-18 01:51:00,46.8,42.0,30.57,NNW,329,0.0,2.0,84,0.00,,,0.00,weatherlink.com 1.10,2013-04-18 08:51:00,
2013-04-18 02:06:00,46.7,42.0,30.57,NNW,331,0.0,3.0,84,0.00,,,0.00,weatherlink.com 1.10,2013-04-18 09:06:00,
2013-04-18 02:21:00,46.7,42.0,30.57,NW,316,1.0,4.0,84,0.00,,,0.00,weatherlink.com 1.10,2013-04-18 09:21:00,
2013-04-18 02:36:00,46.6,42.0,30.57,NW,318,0.0,4.0,84,0.00,,,0.00,weatherlink.com 1.10,2013-04-18 09:36:00,
2013-04-18 02:51:00,46.5,42.0,30.57,NNE,15,1.0,4.0,84,0.00,,,0.00,weatherlink.com 1.10,2013-04-18 09:51:00,
2013-04-18 03:06:00,46.5,42.0,30.57,NW,308,1.0,4.0,83,0.00,,,0.00,weatherlink.com 1.10,2013-04-18 10:06:00,
2013-04-18 03:21:00,46.5,42.0,30.57,NNW,330,0.0,2.0,83,0.00,,,0.00,weatherlink.com 1.10,2013-04-18 10:21:00,
2013-04-18 03:36:00,46.3,41.0,30.56,NNW,330,0.0,2.0,83,0.00,,,0.00,weatherlink.com 1.10,2013-04-18 10:36:00,
2013-04-18 03:51:00,46.1,42.0,30.56,NNW,330,0.0,0.0,84,0.00,,,0.00,weatherlink.com 1.10,2013-04-18 10:51:00,
2013-04-18 04:21:00,45.4,42.0,30.56,NNW,330,0.0,0.0,87,0.00,,,0.00,weatherlink.com 1.10,2013-04-18 11:21:00,
2013-04-18 04:36:00,45.1,42.0,30.57,NNW,330,0.0,0.0,87,0.00,,,0.00,weatherlink.com 1.10,2013-04-18 11:36:00,
2013-04-18 04:51:00,44.9,41.0,30.57,NNW,330,0.0,0.0,87,0.00,,,0.00,weatherlink.com 1.10,2013-04-18 11:51:00,
2013-04-18 05:06:00,44.5,41.0,30.57,NNW,330,0.0,0.0,88,0.00,,,0.00,weatherlink.com 1.10,2013-04-18 12:06:00,
2013-04-18 05:36:00,43.7,41.0,30.57,NNW,330,0.0,0.0,89,0.00,,,0.00,weatherlink.com 1.10,2013-04-18 12:36:00,
2013-04-18 05:51:00,43.4,41.0,30.56,NNW,330,0.0,0.0,90,0.00,,,0.00,weatherlink.com 1.10,2013-04-18 12:51:00,
2013-04-18 06:06:00,43.4,41.0,30.56,NNW,330,0.0,0.0,91,0.00,,,0.00,weatherlink.com 1.10,2013-04-18 13:06:00,
2013-04-18 06:21:00,43.5,41.0,30.57,NNW,330,0.0,0.0,91,0.00,,,0.00,weatherlink.com 1.10,2013-04-18 13:21:00,
2013-04-18 06:36:00,43.8,41.0,30.57,NNW,330,0.0,0.0,91,0.00,,,0.00,weatherlink.com 1.10,2013-04-18 13:36:00,
2013-04-18 06:51:00,44.0,42.0,30.57,NNW,330,0.0,0.0,91,0.00,,,0.00,weatherlink.com 1.10,2013-04-18 13:51:00,
2013-04-18 07:06:00,44.1,42.0,30.57,NNW,330,0.0,0.0,91,0.00,,,0.00,weatherlink.com 1.10,2013-04-18 14:06:00,
2013-04-18 07:21:00,44.3,42.0,30.57,NNW,330,0.0,0.0,91,0.00,,,0.00,weatherlink.com 1.10,2013-04-18 14:21:00,
2013-04-18 07:36:00,44.6,42.0,30.57,NNW,330,0.0,0.0,91,0.00,,,0.00,weatherlink.com 1.10,2013-04-18 14:36:00,
2013-04-18 07:51:00,45.2,43.0,30.57,NNW,330,0.0,0.0,91,0.00,,,0.00,weatherlink.com 1.10,2013-04-18 14:51:00,
2013-04-18 08:21:00,46.3,43.0,30.58,NNW,330,0.0,2.0,88,0.00,,,0.00,weatherlink.com 1.10,2013-04-18 15:21:00,
2013-04-18 08:36:00,46.8,43.0,30.58,NW,308,0.0,2.0,85,0.00,,,0.00,weatherlink.com 1.10,2013-04-18 15:36:00,
2013-04-18 08:51:00,47.4,43.0,30.58,North,355,0.0,2.0,83,0.00,,,0.00,weatherlink.com 1.10,2013-04-18 15:51:00,
2013-04-18 09:06:00,47.9,42.0,30.58,NNW,329,2.0,2.0,81,0.00,,,0.00,weatherlink.com 1.10,2013-04-18 16:06:00,
2013-04-18 09:21:00,48.3,42.0,30.58,West,277,1.0,4.0,80,0.00,,,0.00,weatherlink.com 1.10,2013-04-18 16:21:00,
2013-04-18 09:36:00,48.8,43.0,30.58,West,277,1.0,1.0,79,0.00,,,0.00,weatherlink.com 1.10,2013-04-18 16:36:00,
2013-04-18 09:51:00,49.0,42.0,30.58,West,269,3.0,4.0,78,0.00,,,0.00,weatherlink.com 1.10,2013-04-18 16:51:00,
2013-04-18 10:06:00,48.8,43.0,30.58,West,267,3.0,6.0,79,0.00,,,0.00,weatherlink.com 1.10,2013-04-18 17:06:00,
2013-04-18 10:21:00,48.5,42.0,30.58,West,259,4.0,6.0,79,0.00,,,0.00,weatherlink.com 1.10,2013-04-18 17:21:00,
2013-04-18 10:36:00,48.8,42.0,30.58,West,259,5.0,7.0,78,0.00,,,0.00,weatherlink.com 1.10,2013-04-18 17:36:00,
2013-04-18 10:51:00,49.0,42.0,30.58,WNW,297,4.0,6.0,77,0.00,,,0.00,weatherlink.com 1.10,2013-04-18 17:51:00,
2013-04-18 11:06:00,49.0,43.0,30.58,West,273,2.0,7.0,79,0.00,,,0.00,weatherlink.com 1.10,2013-04-18 18:06:00,
2013-04-18 11:21:00,48.8,43.0,30.59,WNW,299,7.0,7.0,79,0.00,,,0.00,weatherlink.com 1.10,2013-04-18 18:21:00,
2013-04-18 11:37:00,48.5,43.0,30.59,WNW,283,1.0,7.0,80,0.00,,,0.00,weatherlink.com 1.10,2013-04-18 18:37:00,
2013-04-18 11:52:00,48.8,43.0,30.59,West,263,2.0,6.0,81,0.00,,,0.00,weatherlink.com 1.10,2013-04-18 18:52:00,
2013-04-18 12:07:00,48.7,43.0,30.58,WSW,246,6.0,8.0,80,0.00,,,0.00,weatherlink.com 1.10,2013-04-18 19:07:00,
2013-04-18 12:21:00,49.4,43.0,30.58,WNW,298,5.0,8.0,79,0.00,,,0.00,weatherlink.com 1.10,2013-04-18 19:21:00,
2013-04-18 12:36:00,50.3,44.0,30.57,West,259,4.0,9.0,79,0.00,,,0.00,weatherlink.com 1.10,2013-04-18 19:36:00,
2013-04-18 12:51:00,49.6,44.0,30.57,West,276,4.0,10.0,80,0.00,,,0.00,weatherlink.com 1.10,2013-04-18 19:51:00,
2013-04-18 13:06:00,49.1,43.0,30.57,WNW,284,6.0,10.0,80,0.00,,,0.00,weatherlink.com 1.10,2013-04-18 20:06:00,
2013-04-18 13:22:00,49.6,44.0,30.56,WNW,288,2.0,8.0,81,0.00,,,0.00,weatherlink.com 1.10,2013-04-18 20:22:00,
2013-04-18 13:36:00,50.3,45.0,30.56,WSW,250,7.0,10.0,81,0.00,,,0.00,weatherlink.com 1.10,2013-04-18 20:36:00,
2013-04-18 13:52:00,50.2,44.0,30.55,WNW,285,5.0,8.0,79,0.00,,,0.00,weatherlink.com 1.10,2013-04-18 20:52:00,
2013-04-18 14:07:00,50.1,45.0,30.55,West,281,3.0,9.0,81,0.00,,,0.00,weatherlink.com 1.10,2013-04-18 21:07:00,
2013-04-18 14:22:00,50.7,45.0,30.55,West,263,2.0,8.0,80,0.00,,,0.00,weatherlink.com 1.10,2013-04-18 21:22:00,
2013-04-18 14:37:00,50.5,44.0,30.54,West,259,3.0,9.0,79,0.00,,,0.00,weatherlink.com 1.10,2013-04-18 21:37:00,
2013-04-18 14:52:00,51.0,45.0,30.54,WNW,288,5.0,7.0,79,0.00,,,0.00,weatherlink.com 1.10,2013-04-18 21:52:00,
2013-04-18 15:07:00,50.3,44.0,30.54,WNW,286,7.0,10.0,79,0.00,,,0.00,weatherlink.com 1.10,2013-04-18 22:07:00,
2013-04-18 15:22:00,50.0,44.0,30.55,WNW,286,8.0,12.0,80,0.00,,,0.00,weatherlink.com 1.10,2013-04-18 22:22:00,
2013-04-18 15:37:00,49.9,44.0,30.55,WNW,284,6.0,9.0,79,0.00,,,0.00,weatherlink.com 1.10,2013-04-18 22:37:00,
2013-04-18 15:52:00,50.5,44.0,30.53,West,267,2.0,5.0,79,0.00,,,0.00,weatherlink.com 1.10,2013-04-18 22:52:00,
2013-04-18 16:07:00,51.3,45.0,30.53,WNW,289,4.0,8.0,78,0.00,,,0.00,weatherlink.com 1.10,2013-04-18 23:07:00,
2013-04-18 16:22:00,51.0,44.0,30.52,WNW,282,3.0,10.0,78,0.00,,,0.00,weatherlink.com 1.10,2013-04-18 23:22:00,
2013-04-18 16:37:00,50.7,44.0,30.52,West,273,4.0,10.0,79,0.00,,,0.00,weatherlink.com 1.10,2013-04-18 23:37:00,
2013-04-18 16:52:00,50.7,45.0,30.52,WNW,283,7.0,8.0,80,0.00,,,0.00,weatherlink.com 1.10,2013-04-18 23:52:00,
2013-04-18 17:07:00,50.1,45.0,30.52,WNW,296,5.0,9.0,82,0.00,,,0.00,weatherlink.com 1.10,2013-04-19 00:07:00,
2013-04-18 17:22:00,50.0,45.0,30.52,WNW,286,5.0,10.0,82,0.00,,,0.00,weatherlink.com 1.10,2013-04-19 00:22:00,
2013-04-18 17:37:00,50.1,45.0,30.51,West,277,3.0,7.0,83,0.00,,,0.00,weatherlink.com 1.10,2013-04-19 00:37:00,
2013-04-18 17:52:00,50.4,46.0,30.51,West,270,3.0,7.0,84,0.00,,,0.00,weatherlink.com 1.10,2013-04-19 00:52:00,
2013-04-18 18:07:00,50.2,46.0,30.52,West,279,5.0,9.0,85,0.00,,,0.00,weatherlink.com 1.10,2013-04-19 01:07:00,
2013-04-18 18:22:00,49.8,46.0,30.52,WNW,288,3.0,7.0,87,0.00,,,0.00,weatherlink.com 1.10,2013-04-19 01:22:00,
2013-04-18 18:37:00,49.4,46.0,30.52,West,281,1.0,4.0,89,0.00,,,0.00,weatherlink.com 1.10,2013-04-19 01:37:00,
2013-04-18 18:52:00,49.0,47.0,30.51,West,267,0.0,5.0,91,0.00,,,0.00,weatherlink.com 1.10,2013-04-19 01:52:00,
2013-04-18 19:07:00,48.9,47.0,30.51,West,273,2.0,3.0,92,0.00,,,0.00,weatherlink.com 1.10,2013-04-19 02:07:00,
2013-04-18 19:22:00,48.8,47.0,30.50,West,274,0.0,3.0,93,0.00,,,0.00,weatherlink.com 1.10,2013-04-19 02:22:00,
2013-04-18 19:37:00,48.8,47.0,30.49,West,274,0.0,2.0,93,0.00,,,0.00,weatherlink.com 1.10,2013-04-19 02:37:00,
2013-04-18 19:52:00,48.8,47.0,30.49,West,278,0.0,2.0,94,0.00,,,0.00,weatherlink.com 1.10,2013-04-19 02:52:00,
2013-04-18 20:07:00,48.9,47.0,30.49,West,278,0.0,1.0,94,0.00,,,0.00,weatherlink.com 1.10,2013-04-19 03:07:00,
2013-04-18 20:22:00,48.9,47.0,30.48,West,278,0.0,0.0,94,0.00,,,0.00,weatherlink.com 1.10,2013-04-19 03:22:00,
2013-04-18 20:37:00,48.9,47.0,30.48,West,278,0.0,0.0,94,0.00,,,0.00,weatherlink.com 1.10,2013-04-19 03:37:00,
2013-04-18 20:52:00,48.8,47.0,30.48,West,278,0.0,0.0,94,0.01,,,0.01,weatherlink.com 1.10,2013-04-19 03:52:00,
2013-04-18 21:07:00,48.7,47.0,30.47,West,278,0.0,0.0,94,0.01,,,0.01,weatherlink.com 1.10,2013-04-19 04:07:00,
2013-04-18 21:22:00,48.7,47.0,30.48,West,278,0.0,0.0,94,0.01,,,0.01,weatherlink.com 1.10,2013-04-19 04:22:00,
2013-04-18 21:37:00,48.7,47.0,30.48,West,278,0.0,0.0,94,0.01,,,0.01,weatherlink.com 1.10,2013-04-19 04:37:00,
2013-04-18 21:52:00,48.7,47.0,30.48,West,278,0.0,0.0,95,0.00,,,0.01,weatherlink.com 1.10,2013-04-19 04:52:00,
2013-04-18 22:07:00,48.7,47.0,30.47,West,278,0.0,0.0,95,0.00,,,0.01,weatherlink.com 1.10,2013-04-19 05:07:00,
2013-04-18 22:22:00,48.7,47.0,30.46,SE,136,0.0,4.0,95,0.00,,,0.01,weatherlink.com 1.10,2013-04-19 05:22:00,
2013-04-18 22:37:00,48.8,48.0,30.46,South,186,0.0,2.0,95,0.00,,,0.01,weatherlink.com 1.10,2013-04-19 05:37:00,
2013-04-18 22:52:00,48.8,48.0,30.46,South,186,0.0,0.0,95,0.00,,,0.01,weatherlink.com 1.10,2013-04-19 05:52:00,
2013-04-18 23:07:00,48.8,48.0,30.45,South,186,0.0,0.0,95,0.00,,,0.01,weatherlink.com 1.10,2013-04-19 06:07:00,
2013-04-18 23:22:00,48.8,48.0,30.45,South,186,0.0,1.0,95,0.00,,,0.01,weatherlink.com 1.10,2013-04-19 06:22:00,
2013-04-18 23:37:00,49.0,48.0,30.45,WSW,252,1.0,3.0,95,0.01,,,0.02,weatherlink.com 1.10,2013-04-19 06:37:00,
2013-04-18 23:52:00,49.1,48.0,30.45,West,273,1.0,5.0,95,0.01,,,0.02,weatherlink.com 1.10,2013-04-19 06:52:00,